Probability
39 38 33 29 26 24 24 25 25 22 19 19 21 21 20 19 17 15 15 15 17 19 19 18 17 16 14 14 16 18 19 20 19 18 19 20 20 19 16 16 13 10 9
36 37 35 32 29 27 26 26 25 23 21 21 23 24 22 21 21 21 19 18 19 21 21 21 20 20 19 19 21 22 22 22 21 20 21 21 22 20 19 18 14 10 9
36 38 39 37 35 32 30 28 27 26 26 26 28 29 28 27 28 28 26 23 23 24 25 24 23 24 26 25 25 24 24 23 22 22 21 22 22 23 24 22 17 13 12
42 43 44 43 41 39 35 32 31 31 31 31 31 31 31 32 32 31 28 26 24 24 24 24 24 26 28 26 23 23 23 23 23 23 22 21 22 25 27 26 22 19 17
49 49 49 47 45 42 37 35 36 35 33 32 32 32 32 30 28 28 28 25 22 21 21 21 22 23 23 21 18 18 20 22 23 23 22 22 23 25 27 27 26 24 22
52 51 50 48 46 43 39 38 40 38 34 33 33 33 32 26 20 20 24 23 20 18 18 19 19 18 17 15 13 12 13 15 19 22 22 25 28 28 28 27 26 25 23
51 50 50 49 47 44 41 41 43 42 38 36 37 37 36 27 16 12 15 20 19 16 17 18 16 14 14 14 13 10 9 10 12 17 22 27 31 33 31 28 26 24 24
52 51 52 52 50 46 44 43 44 44 42 40 41 43 42 31 16 8 10 17 20 18 17 17 15 13 13 14 15 15 15 13 12 13 19 24 27 29 30 30 27 25 24
54 53 52 53 52 49 47 46 45 45 44 43 43 45 45 35 18 7 9 16 21 20 18 16 13 12 11 12 16 21 23 22 19 16 17 19 19 19 21 25 27 25 23
53 52 52 53 53 51 50 48 47 46 44 43 44 44 44 35 20 8 8 16 20 20 19 16 11 9 9 9 14 20 24 24 23 21 18 17 16 14 15 20 26 25 22
52 51 50 51 51 51 50 49 47 45 42 43 43 43 41 33 19 7 6 12 17 21 21 17 12 7 5 4 8 14 18 19 20 20 20 21 20 20 19 22 26 27 26
47 47 47 48 48 47 47 47 46 44 42 41 42 41 38 30 18 7 3 5 10 17 19 15 9 5 2 2 4 8 9 11 15 17 19 22 25 26 26 27 29 31 32
42 43 43 43 43 43 43 43 42 40 38 37 37 37 35 29 20 10 3 0 3 10 12 8 4 2 1 1 2 3 5 8 12 16 18 22 26 28 27 28 30 31 32
39 39 38 37 37 39 39 37 33 32 31 30 30 30 29 26 21 14 7 3 4 7 8 6 4 4 4 4 5 6 8 10 12 15 19 22 25 26 25 25 27 28 28
34 32 31 31 33 34 33 27 22 21 20 20 21 23 23 20 16 13 10 8 8 9 10 10 11 10 9 9 10 13 15 15 15 16 19 22 23 23 22 21 21 23 22
29 26 24 25 27 27 24 19 14 12 11 10 12 15 16 12 8 7 7 8 8 9 11 14 15 14 13 13 15 19 21 20 19 19 21 21 21 20 18 16 16 16 16
25 22 19 19 19 18 17 15 12 10 8 6 5 7 8 5 2 1 2 3 4 5 10 15 17 16 15 16 17 20 22 21 20 20 20 20 18 15 14 14 13 13 13
18 17 15 14 13 14 14 12 12 12 11 8 5 3 2 1 0 0 1 1 2 4 9 13 15 16 16 17 18 20 21 20 19 19 20 19 16 13 12 12 12 11 11
14 13 12 13 13 13 12 10 10 12 12 11 7 4 1 0 0 0 1 2 3 5 8 11 12 13 15 16 17 18 19 18 18 20 20 19 16 14 11 10 9 8 8
13 11 10 12 12 11 9 9 9 11 11 8 6 4 2 1 0 1 2 4 4 6 8 10 11 12 13 14 15 16 15 13 13 16 17 15 13 12 10 8 6 6 6
10 8 8 9 9 7 6 7 8 9 7 4 2 1 1 1 1 1 3 5 5 5 5 7 9 10 11 11 13 13 12 9 8 10 11 10 9 9 8 8 7 5 4
8 7 6 5 5 4 4 5 6 6 4 1 0 0 0 0 0 0 2 4 5 4 3 4 6 7 7 8 9 10 8 6 4 4 5 6 6 7 7 7 7 5 4
6 6 6 5 4 4 5 5 5 4 2 1 0 0 0 0 0 0 1 2 4 4 4 5 5 4 4 4 5 5 5 3 2 2 2 3 3 3 4 4 4 4 4
4 4 5 5 5 6 6 5 3 1 1 0 0 0 0 1 1 1 1 2 4 4 4 4 3 1 1 1 2 3 3 1 0 0 1 1 0 0 1 1 2 3 3
3 4 5 6 6 5 6 4 2 0 0 0 0 0 2 3 4 4 3 3 3 3 2 1 1 0 0 0 1 2 2 1 0 0 0 0 0 0 0 0 1 1 2
3 4 6 6 6 5 5 3 1 0 0 0 0 1 3 5 5 4 4 3 2 1 0 0 0 0 0 0 1 1 1 0 0 0 0 0 0 0 0 0 0 0 1
Wind_Speed
8 6 5 6 5 4 3 3 3 2 2 2 3 3 3 3 3 3 3 3 3 3 3 4 4 3 2 2 2 2 2 2 3 2 1 2 2 2 3 3 4 5 6
8 7 5 5 5 5 4 3 3 2 2 2 2 2 3 3 2 3 4 3 3 3 3 3 3 3 3 3 2 2 2 2 3 3 2 2 2 3 3 4 4 5 5
8 8 6 6 5 5 4 4 3 3 3 2 2 2 2 2 2 2 3 3 3 3 3 3 4 3 3 3 3 3 2 3 2 3 3 2 2 3 3 3 4 3 5
7 8 7 6 5 5 4 3 3 3 3 3 3 3 2 2 2 2 3 3 3 3 4 4 4 4 4 4 4 3 3 3 2 2 2 2 2 2 3 3 3 3 4
6 6 7 6 5 5 5 4 4 4 4 3 3 2 2 2 2 2 3 3 3 3 3 3 4 4 4 3 3 3 3 3 2 3 3 2 2 2 3 3 3 3 3
4 4 5 6 5 5 4 4 4 4 3 3 3 3 3 3 2 2 1 2 2 2 3 3 3 2 3 3 4 4 4 4 3 3 3 3 3 3 3 3 3 3 3
4 3 3 4 5 4 4 4 4 4 4 3 3 3 3 2 1 1 2 2 2 3 3 2 4 3 2 2 4 5 5 6 6 4 5 5 4 4 4 5 4 4 4
4 3 3 3 4 4 4 4 4 4 4 4 4 4 3 2 2 2 2 3 3 3 3 3 3 2 2 2 3 3 4 4 6 6 6 6 5 3 5 5 5 4 4
4 4 4 4 4 4 4 4 4 3 3 3 3 3 3 2 2 3 2 3 3 4 3 3 3 2 2 3 3 3 3 4 5 5 6 6 7 7 5 3 4 4 4
3 3 4 3 3 4 4 3 3 3 3 3 3 3 3 3 4 4 3 2 3 3 3 2 3 2 2 2 2 4 5 4 4 4 4 6 6 7 8 6 5 5 4
2 2 3 3 3 3 3 2 2 2 3 3 3 3 3 3 5 5 4 2 3 3 3 2 1 1 2 3 4 4 5 5 4 4 4 4 4 5 6 6 6 6 6
2 2 1 1 1 2 2 2 2 3 3 3 3 3 2 2 3 4 4 4 4 4 3 2 2 2 3 4 4 5 6 5 4 4 4 4 4 4 4 5 6 7 6
2 2 2 1 1 0 1 2 2 2 2 2 2 2 1 1 1 1 3 4 5 3 3 3 3 4 4 4 6 6 4 3 3 4 5 4 4 4 3 3 4 5 6
1 1 1 1 1 1 1 1 0 0 1 1 1 0 0 0 1 1 1 2 3 3 3 4 5 4 4 4 3 3 4 3 3 4 4 4 4 3 3 3 4 4 4
0 1 1 1 1 1 1 0 0 1 1 1 1 0 0 1 1 1 1 2 2 2 2 3 3 2 2 3 3 3 3 3 3 4 3 3 4 4 3 3 3 3 4
0 1 1 1 1 1 1 2 3 2 3 2 2 2 2 1 1 2 3 3 4 3 2 3 3 3 3 3 3 2 2 2 3 3 3 4 4 4 4 3 3 4 5
2 1 1 1 1 0 0 1 1 1 2 1 1 1 0 0 1 2 3 3 4 2 2 3 2 2 3 3 2 2 2 2 2 3 3 4 4 4 4 4 4 4 4
2 1 1 1 1 1 1 1 0 1 1 1 0 1 1 2 3 3 2 2 2 1 2 2 2 2 2 3 3 3 3 2 2 3 3 4 3 4 4 4 4 4 4
2 2 1 1 0 1 1 1 1 1 1 2 2 1 1 1 1 2 1 1 2 2 2 2 3 3 3 3 3 3 3 3 3 3 3 4 4 4 4 4 4 5 5
1 1 1 2 1 1 1 2 2 2 2 2 2 2 1 1 1 1 1 1 2 3 3 3 3 3 3 3 3 3 3 4 4 4 4 4 4 4 5 5 5 5 5
2 0 0 1 2 2 2 2 2 2 2 2 2 3 1 1 1 2 2 1 2 3 3 3 3 3 3 3 3 4 4 4 4 4 5 5 6 5 5 5 5 5 5
2 2 1 1 2 2 2 1 1 2 2 2 2 2 1 1 2 2 3 3 3 3 3 3 4 4 4 4 4 4 4 4 4 4 5 5 5 6 5 5 5 5 5
2 2 1 1 1 1 1 1 2 2 2 2 2 2 2 2 3 3 3 4 3 4 4 4 4 4 4 4 4 4 4 4 4 5 5 6 6 6 6 6 6 6 6
3 3 2 2 2 2 2 2 2 2 3 3 3 3 3 3 3 4 4 4 4 4 4 4 4 6 6 5 4 4 4 5 5 5 7 7 7 6 6 6 6 7 6
3 3 3 3 3 3 3 3 3 3 3 3 3 3 3 3 3 3 3 4 4 4 5 5 4 6 7 8 7 6 5 5 5 6 6 6 7 7 6 7 6 6 6
3 3 3 3 3 3 3 3 3 3 3 3 3 3 3 4 4 4 4 4 4 4 4 4 6 7 8 7 8 7 5 6 6 7 6 6 7 6 6 6 7 6 6
Wind_Direction
177 177 177 175 185 191 197 189 183 194 208 197 192 191 196 196 198 203 227 224 224 230 237 232 236 246 255 258 242 232 230 220 249 261 239 196 190 188 173 187 183 186 191
176 171 179 171 176 184 190 189 184 183 192 199 203 201 208 203 203 213 234 235 231 234 245 246 244 245 245 257 267 259 245 224 226 242 238 209 204 189 180 201 201 204 197
175 173 177 176 175 182 186 180 180 178 185 191 183 192 205 214 215 226 239 247 245 238 240 243 247 242 241 243 245 258 257 253 226 234 235 213 201 193 183 209 221 219 215
172 172 170 173 176 178 179 176 183 183 186 197 189 196 207 225 228 238 245 245 247 247 243 241 243 239 237 243 243 247 259 264 242 242 235 212 206 198 190 211 226 224 230
161 165 167 168 170 176 178 178 186 191 198 194 197 203 215 225 241 250 247 238 245 252 251 245 243 241 232 240 255 250 249 250 250 246 243 229 222 197 213 226 231 230 232
153 162 160 166 173 182 182 180 184 192 200 197 200 204 219 240 263 235 247 264 264 267 271 273 254 244 232 231 250 262 254 245 249 253 256 243 227 213 213 226 233 241 246
158 163 161 163 170 178 189 184 193 196 199 203 206 208 206 235 269 187 243 251 257 260 263 272 274 268 246 244 244 255 255 246 236 241 252 252 241 220 216 228 228 231 239
163 168 166 170 173 175 186 192 199 199 202 204 212 216 210 216 197 194 252 230 253 253 246 249 258 272 274 277 248 246 249 244 238 237 248 258 257 241 224 226 232 239 242
168 172 175 177 178 181 191 199 197 197 203 206 207 211 212 192 169 177 206 244 256 266 256 257 253 239 249 270 264 258 257 259 259 262 251 249 247 244 239 233 231 233 251
176 176 169 177 186 192 194 197 202 202 213 220 219 211 206 187 177 183 198 252 265 268 256 245 246 241 241 241 253 262 262 266 276 273 262 258 252 242 229 225 228 232 242
150 160 160 179 200 190 187 187 206 212 216 219 222 217 203 188 178 185 194 239 269 275 274 269 253 143 262 256 251 256 258 274 277 267 258 252 247 241 230 225 225 229 235
102 116 128 155 227 184 177 198 208 221 219 218 218 225 210 170 162 191 209 242 278 282 284 294 314 289 276 268 258 261 268 275 271 273 269 261 254 250 241 234 227 228 234
102 98 92 78 81 77 190 204 210 216 223 224 209 215 213 168 134 171 214 247 259 265 293 312 315 292 272 261 251 252 259 256 258 265 268 266 263 258 251 239 240 236 240
114 121 119 119 175 165 147 221 230 304 272 252 232 223 159 94 56 14 284 268 278 279 301 299 286 266 260 258 256 247 241 249 254 260 269 274 277 268 259 251 246 242 246
142 171 182 215 222 171 135 51 65 27 36 295 275 83 316 291 296 280 257 267 276 283 288 274 262 258 259 252 246 244 247 247 252 262 269 277 279 275 269 266 252 249 249
246 259 265 243 207 190 141 116 64 83 71 43 58 60 57 45 281 277 274 277 272 253 242 262 263 264 269 274 273 268 263 264 268 267 265 268 275 277 275 271 264 253 255
355 342 322 343 350 13 94 166 169 85 89 64 34 20 148 287 300 285 293 309 299 265 241 266 277 290 293 299 296 294 291 288 286 291 287 280 279 281 280 276 272 268 264
335 1 349 353 12 356 327 289 178 146 130 163 190 246 227 239 256 264 290 342 307 270 276 294 303 302 302 311 318 321 314 307 300 298 296 294 294 291 286 280 274 275 277
324 344 357 341 3 17 347 347 14 43 83 80 80 52 15 322 287 287 290 289 290 311 317 316 318 318 322 323 325 327 331 331 334 326 317 314 306 299 294 292 289 283 274
300 6 326 317 340 56 33 3 9 40 57 59 49 47 35 355 356 8 270 303 314 328 339 343 338 336 336 334 336 339 340 339 340 336 334 327 317 308 302 296 292 289 282
318 112 205 318 2 22 33 30 35 38 37 37 53 69 66 358 350 357 349 348 340 335 340 339 337 337 343 344 346 344 344 342 339 338 335 327 320 314 308 301 296 294 295
332 0 23 14 26 23 18 19 28 39 33 31 45 73 122 327 353 7 359 7 5 355 348 340 340 346 353 358 354 347 345 345 343 338 329 319 312 308 306 304 303 304 303
317 337 10 29 22 59 10 18 30 25 22 23 23 27 36 7 356 7 6 9 13 3 2 356 351 355 359 3 360 1 3 352 337 329 321 315 312 309 307 306 305 306 308
343 345 357 18 22 24 29 27 25 21 24 21 19 20 18 11 8 17 14 12 11 6 5 359 356 355 2 6 7 19 19 355 341 329 321 308 303 301 304 308 308 308 307
348 357 6 15 21 19 26 25 24 25 23 22 24 19 12 9 13 18 16 14 6 357 355 357 1 2 9 17 18 27 20 5 354 336 317 305 302 304 307 308 308 309 309
1 3 6 14 22 25 27 23 22 21 18 21 26 21 14 8 8 13 15 7 357 356 359 4 5 11 16 24 35 36 15 356 344 330 312 302 302 309 315 307 306 306 305